Tracking 29892 objects as of 21-Nov-2024
HD Live streaming from Space Station
objects crossing your sky now

SL-8 DEB

Track SL-8 DEB now!
10-day predictions


NORAD ID: 24818
Int'l Code: 1977-087C
Perigee: 942.5 km
Apogee: 988.3 km
Inclination: 83.0 °
Period: 104.2 minutes
Semi major axis: 7336 km
RCS: 0.0052 m2 (small)
Launch date: September 13, 1977
Source: Commonwealth of Independent States (former USSR) (CIS)
Launch site: PLESETSK MISSILE AND SPACE COMPLEX (PKMTR)

Note: This is SATELLITE DEBRIS
Your satellite tracking list
Your tracking list is empty




NASA's NSSDC Master Catalog

Two Line Element Set (TLE):
1 24818U 77087C   24325.00156113  .00000624  00000-0  56881-3 0  9998
2 24818  82.9673 162.5384 0031177 240.1807 274.2256 13.81589682370324
Source of the keplerian elements: AFSPC